Regional Weather Roundup
Issued by NWS Little Rock, AR

Home | Current Version | Previous Version | Graphics & Text | Print | Product List | Glossary On
Versions: 1 2 3 4 5 6 7 8 9 10 11 12 13 14 15 16 17 18 19 20 21 22 23 24 25 26 27 28 29 30 31 32 33 34 35 36 37 38 39 40 41 42 43 44 45 46 47 48 49 50
000
ASUS44 KLZK 231205
RWRLZK

WEATHER ROUNDUP FOR ARKANSAS
NATIONAL WEATHER SERVICE LITTLE ROCK AR
700 AM CDT THU MAR 23 2017

NOTE: "FAIR" INDICATES FEW OR NO CLOUDS BELOW 12,000 FEET WITH NO
SIGNIFICANT WEATHER AND/OR OBSTRUCTIONS TO VISIBILITY.

ARZ001-003-010-029-231300-
NORTHWEST ARKANSAS

CITY           SKY/WX    TMP DP  RH WIND       PRES   REMARKS
FAYETTEVILLE   CLEAR     45  41  86 CALM      30.13R
6HR MIN TEMP:  45; 6HR MAX TEMP:  53;

FORT SMITH     CLEAR     49  35  58 E13       30.15S
6HR MIN TEMP:  49; 6HR MAX TEMP:  53;

HARRISON       PTCLDY    43  31  62 SE14      30.19S
6HR MIN TEMP:  43; 6HR MAX TEMP:  48;

BENTONVILLE    PTCLDY    50  36  57 SE12      30.14R
6HR MIN TEMP:  50; 6HR MAX TEMP:  54;

ROGERS         PTCLDY    49  37  63 SE14      30.14R
6HR MIN TEMP:  49; 6HR MAX TEMP:  53;

SILOAM SPGS    CLOUDY    52  37  58 SE7       30.12R
6HR MIN TEMP:  50; 6HR MAX TEMP:  55;

HIGHFILL       MOCLDY    50  38  63 E7        30.13R
6HR MIN TEMP:  49; 6HR MAX TEMP:  55;

SPRINGDALE     MOCLDY    50  36  57 SE7       30.15R
$$

ARZ004-005-016-231300-
NORTH CENTRAL ARKANSAS

CITY           SKY/WX    TMP DP  RH WIND       PRES   REMARKS
BATESVILLE     CLOUDY    46  36  66 SE5       30.26F
6HR MIN TEMP:  43; 6HR MAX TEMP:  48;

FLIPPIN        CLOUDY    46  27  46 SE5       30.21R
6HR MIN TEMP:  46; 6HR MAX TEMP:  50;

MTN HOME       CLOUDY    46  28  49 SE10      30.21S
6HR MIN TEMP:  46; 6HR MAX TEMP:  50;

$$

ARZ040-041-231300-
WEST CENTRAL ARKANSAS

CITY           SKY/WX    TMP DP  RH WIND       PRES   REMARKS
MENA           CLOUDY    50  46  87 E3        30.16S
MOUNT IDA      PTCLDY    46  41  82 CALM      30.16R
6HR MIN TEMP:  46; 6HR MAX TEMP:  54;

$$

ARZ009-017-025-026-028-231300-
NORTHEAST ARKANSAS

CITY           SKY/WX    TMP DP  RH WIND       PRES   REMARKS
CORNING        CLOUDY    46  36  66 NE6       30.28S
JONESBORO      CLOUDY    46  37  71 NE8       30.27R
6HR MIN TEMP:  44; 6HR MAX TEMP:  48;

NEWPORT        CLOUDY    47  41  80 MISG      30.27R
6HR MIN TEMP:  44; 6HR MAX TEMP:  48;

WALNUT RIDGE   MOCLDY    46  34  61 NE5       30.27S
6HR MIN TEMP:  45; 6HR MAX TEMP:  48;

BLYTHEVILLE    CLOUDY    47  35  63 E6        30.29R
6HR MIN TEMP:  45; 6HR MAX TEMP:  49;

$$

ARZ022-023-033-042-044-231300-
CENTRAL ARKANSAS

CITY           SKY/WX    TMP DP  RH WIND       PRES   REMARKS
LITTLE ROCK    MOCLDY    49  40  71 NE6       30.23R
6HR MIN TEMP:  45; 6HR MAX TEMP:  50;

N LITTLE ROCK    N/A     49  37  61 E8        30.24R
6HR MIN TEMP:  47; 6HR MAX TEMP:  51;

CONWAY           N/A     50  37  62 CALM      30.21S
SEARCY         CLOUDY    49  36  61 NE7       30.27R
6HR MIN TEMP:  46; 6HR MAX TEMP:  51;

HOT SPRINGS    CLOUDY    52  38  58 E7        30.20R
6HR MIN TEMP:  49; 6HR MAX TEMP:  53;

RUSSELLVILLE   PTCLDY    49  32  52 SE5       30.21R
6HR MIN TEMP:  49; 6HR MAX TEMP:  51;

CLINTON        CLOUDY    48  43  81 CALM      30.24S
$$

ARZ036-231300-
EAST ARKANSAS

CITY           SKY/WX    TMP DP  RH WIND       PRES   REMARKS
WEST MEMPHIS   CLOUDY    50  30  46 E6        30.25R
6HR MIN TEMP:  49; 6HR MAX TEMP:  51;

$$

ARZ050-053-066-070-073-231300-
SOUTHWEST ARKANSAS

CITY           SKY/WX    TMP DP  RH WIND       PRES   REMARKS
ARKADELPHIA    FAIR      49  40  71 NE6       30.20R
6HR MIN TEMP:  49; 6HR MAX TEMP:  54;

CAMDEN         CLEAR     48  41  76 CALM      30.19R
TEXARKANA      CLOUDY    53  48  83 E6        30.15S
6HR MIN TEMP:  52; 6HR MAX TEMP:  58;

EL DORADO      PTCLDY    53  48  83 E3        30.17S
6HR MIN TEMP:  52; 6HR MAX TEMP:  58;

DE QUEEN       MOCLDY    52  44  74 E6        30.14R
6HR MIN TEMP:  51; 6HR MAX TEMP:  57;

$$

ARZ056-057-069-231300-
SOUTHEAST ARKANSAS

CITY           SKY/WX    TMP DP  RH WIND       PRES   REMARKS
PINE BLUFF     CLOUDY    51  41  68 E6        30.22R
6HR MIN TEMP:  49; 6HR MAX TEMP:  53;

STUTTGART      CLOUDY    50  34  53 E6        30.24R
6HR MIN TEMP:  48; 6HR MAX TEMP:  52;

MONTICELLO     CLOUDY    52  43  71 E5        30.21R
6HR MIN TEMP:  51; 6HR MAX TEMP:  55;


$$





USA.gov is the U.S. government's official web portal to all federal, state and local government web resources and services.